Change the Weather History Date:

Wednesday, February 22, 2012

  Actual Average Record
Temperature  
Mean Temperature 36 °F -  
Max Temperature 38 °F 36 °F 53 °F (1984)
Min Temperature 33 °F 21 °F -5 °F (1963)
Degree Days  
Heating Degree Days 30    
Moisture  
Dew Point 26 °F    
Average Humidity 68    
Maximum Humidity 83    
Minimum Humidity 60    
Precipitation  
Precipitation 0.00 in - - ()
Sea Level Pressure  
Sea Level Pressure 29.46 in    
Wind  
Wind Speed 13 mph (WSW)    
Max Wind Speed 17 mph    
Max Gust Speed 25 mph    
Visibility 10 miles    
Events      
Averages and records for this station are not official NWS values.
T = Trace of Precipitation, MM = Missing Value Source: NWS Daily Summary

Daily Weather History Graph

Daily Weather History Graph

Search for Another Location

Airport or City:

Trip Planner

Search our weather history database for the weather conditions in past years. The results will help you decide how hot, cold, wet, or windy it might be!

Date:

Astronomy

Feb. 22, 2012 Rise Set
Actual Time 7:34 AM EST 6:24 PM EST
Civil Twilight 7:05 AM EST 6:53 PM EST
Nautical Twilight 6:32 AM EST 7:27 PM EST
Astronomical Twilight 5:58 AM EST 8:00 PM EST
Moon 7:29 AM EST (2/22) 7:34 PM EST (2/22)
Length of Visible Light 11h 47m
Length of Day
10h 49m
New Moon, 1% of the Moon is Illuminated
Feb 22
New Moon
Feb 29
First Quarter
Mar 8
Full
Mar 14
Last Quarter
Mar 22
New

Hourly Weather History & Observations

Time (EST) Temp. Windchill Dew Point Humidity Pressure Visibility Wind Dir Wind Speed Gust Speed Precip Events Conditions
12:14 AM 36.1 °F 26.9 °F 30.4 °F 80% 29.54 in 10.0 mi WSW 15.0 mph 23.0 mph N/A   Mostly Cloudy
12:34 AM 36.1 °F 27.3 °F 28.8 °F 75% 29.53 in 10.0 mi WSW 13.8 mph 23.0 mph N/A   Overcast
12:55 AM 36.1 °F 27.7 °F 28.9 °F 75% 29.54 in 10.0 mi West 12.7 mph 23.0 mph N/A   Overcast
1:14 AM 36.1 °F 28.2 °F 29.1 °F 76% 29.54 in 10.0 mi West 11.5 mph 19.6 mph N/A   Overcast
1:35 AM 36.1 °F 29.3 °F 26.1 °F 67% 29.54 in 10.0 mi West 9.2 mph 23.0 mph N/A   Overcast
1:54 AM 36.1 °F 26.5 °F 27.7 °F 71% 29.53 in 10.0 mi West 16.1 mph 24.2 mph N/A   Overcast
2:15 AM 35.8 °F 26.9 °F 26.6 °F 69% 29.53 in 10.0 mi WSW 13.8 mph 24.2 mph N/A   Overcast
2:35 AM 34.9 °F 25.3 °F 26.2 °F 71% 29.53 in 10.0 mi WSW 15.0 mph 25.3 mph N/A   Overcast
2:54 AM 34.7 °F 25.5 °F 26.1 °F 71% 29.52 in 10.0 mi West 13.8 mph 25.3 mph N/A   Overcast
3:15 AM 34.9 °F 25.3 °F 24.4 °F 66% 29.52 in 10.0 mi West 15.0 mph 21.9 mph N/A   Overcast
3:35 AM 34.3 °F 24.2 °F 24.6 °F 68% 29.52 in 10.0 mi WSW 16.1 mph 21.9 mph N/A   Overcast
3:54 AM 33.8 °F 24.8 °F 23.4 °F 66% 29.51 in 10.0 mi West 12.7 mph 20.7 mph N/A   Overcast
4:15 AM 33.8 °F 25.8 °F 22.1 °F 62% 29.51 in 10.0 mi West 10.4 mph 23.0 mph N/A   Overcast
4:34 AM 33.8 °F 23.5 °F 21.9 °F 62% 29.51 in 10.0 mi West 16.1 mph 24.2 mph N/A   Overcast
4:54 AM 33.8 °F 23.9 °F 22.3 °F 63% 29.51 in 10.0 mi West 15.0 mph 20.7 mph N/A   Overcast
5:15 AM 33.8 °F 24.8 °F 22.6 °F 64% 29.51 in 10.0 mi West 12.7 mph 20.7 mph N/A   Overcast
5:34 AM 33.8 °F 23.2 °F 23.9 °F 67% 29.51 in 10.0 mi West 17.3 mph 23.0 mph N/A   Overcast
5:54 AM 33.8 °F 24.8 °F 23.9 °F 67% 29.51 in 10.0 mi West 12.7 mph 20.7 mph N/A   Overcast
6:15 AM 33.8 °F 23.9 °F 23.9 °F 67% 29.51 in 10.0 mi WSW 15.0 mph 21.9 mph N/A   Overcast
6:34 AM 33.8 °F 23.9 °F 24.8 °F 70% 29.50 in 10.0 mi West 15.0 mph 21.9 mph N/A   Overcast
6:54 AM 33.8 °F 24.3 °F 25.2 °F 71% 29.50 in 10.0 mi WSW 13.8 mph - N/A   Overcast
7:15 AM 33.8 °F 25.3 °F 24.8 °F 70% 29.50 in 10.0 mi WSW 11.5 mph 19.6 mph N/A   Overcast
7:34 AM 33.8 °F 25.8 °F 24.8 °F 70% 29.49 in 10.0 mi West 10.4 mph 19.6 mph N/A   Overcast
7:55 AM 33.8 °F 26.4 °F 24.8 °F 70% 29.49 in 10.0 mi West 9.2 mph 20.7 mph N/A   Mostly Cloudy
8:15 AM 33.8 °F 26.4 °F 23.9 °F 67% 29.49 in 10.0 mi West 9.2 mph 19.6 mph N/A   Mostly Cloudy
8:55 AM 33.8 °F 23.9 °F 24.1 °F 68% 29.49 in 10.0 mi WSW 15.0 mph 20.7 mph N/A   Scattered Clouds
9:14 AM 33.8 °F 24.3 °F 23.9 °F 67% 29.48 in 10.0 mi West 13.8 mph 21.9 mph N/A   Mostly Cloudy
9:34 AM 34.7 °F 25.1 °F 25.5 °F 69% 29.48 in 10.0 mi WSW 15.0 mph 23.0 mph N/A   Mostly Cloudy
9:55 AM 36.1 °F 26.9 °F 26.1 °F 67% 29.47 in 10.0 mi WSW 15.0 mph 19.6 mph N/A   Mostly Cloudy
10:14 AM 36.1 °F 27.3 °F 26.4 °F 68% 29.47 in 10.0 mi WSW 13.8 mph 19.6 mph N/A   Mostly Cloudy
10:34 AM 36.1 °F 27.3 °F 26.4 °F 68% 29.46 in 10.0 mi WSW 13.8 mph 21.9 mph N/A   Overcast
10:55 AM 36.1 °F 28.2 °F 25.3 °F 65% 29.46 in 10.0 mi West 11.5 mph 21.9 mph N/A   Mostly Cloudy
11:14 AM 36.1 °F 26.5 °F 25.7 °F 66% 29.46 in 10.0 mi WSW 16.1 mph 21.9 mph N/A   Mostly Cloudy
11:34 AM 36.1 °F 27.3 °F 25.3 °F 65% 29.45 in 10.0 mi West 13.8 mph 21.9 mph N/A   Scattered Clouds
11:54 AM 37.2 °F 27.9 °F 26.2 °F 65% 29.46 in 10.0 mi WSW 16.1 mph 21.9 mph N/A   Mostly Cloudy
12:14 PM 36.3 °F 28.0 °F 25.3 °F 64% 29.45 in 10.0 mi West 12.7 mph 21.9 mph N/A   Mostly Cloudy
12:35 PM 37.8 °F 29.8 °F 25.5 °F 61% 29.44 in 10.0 mi West 12.7 mph 20.7 mph N/A   Mostly Cloudy
12:54 PM 36.5 °F 26.7 °F 26.1 °F 66% 29.42 in 10.0 mi SW 17.3 mph 23.0 mph N/A   Mostly Cloudy
1:14 PM 38.5 °F 29.2 °F 26.6 °F 62% 29.41 in 10.0 mi WSW 17.3 mph 21.9 mph N/A   Scattered Clouds
1:35 PM 38.7 °F 29.8 °F 26.1 °F 61% 29.41 in 10.0 mi WSW 16.1 mph - N/A   Scattered Clouds
1:54 PM 38.7 °F 29.8 °F 26.2 °F 61% 29.40 in 10.0 mi WSW 16.1 mph 21.9 mph N/A   Clear
2:14 PM 38.7 °F 30.5 °F 25.9 °F 60% 29.40 in 10.0 mi WSW 13.8 mph 23.0 mph N/A   Clear
2:34 PM 38.7 °F 30.9 °F 27.3 °F 64% 29.39 in 10.0 mi WSW 12.7 mph - N/A   Clear
2:36 PM 38.5 °F 30.7 °F 27.3 °F 64% 29.39 in 10.0 mi WSW 12.7 mph - N/A   Clear
2:55 PM 38.7 °F 30.5 °F 27.5 °F 64% 29.39 in 10.0 mi WSW 13.8 mph - N/A   Scattered Clouds
3:14 PM 38.1 °F 30.7 °F 28.4 °F 68% 29.39 in 10.0 mi WSW 11.5 mph - N/A   Scattered Clouds
3:35 PM 36.7 °F 28.4 °F 27.1 °F 68% 29.39 in 10.0 mi SW 12.7 mph 18.4 mph N/A   Clear
3:55 PM 36.3 °F 28.4 °F 26.4 °F 67% 29.39 in 10.0 mi WSW 11.5 mph 17.3 mph N/A   Clear
4:14 PM 36.1 °F 28.7 °F 26.2 °F 67% 29.39 in 10.0 mi SW 10.4 mph - N/A   Clear
4:35 PM 38.7 °F 32.4 °F 27.9 °F 65% 29.39 in 10.0 mi WSW 9.2 mph - N/A   Clear
4:54 PM 37.4 °F 31.4 °F 26.2 °F 64% 29.38 in 10.0 mi WSW 8.1 mph - N/A   Clear
5:14 PM 36.1 °F 29.3 °F 25.7 °F 66% 29.38 in 10.0 mi WSW 9.2 mph - N/A   Clear
5:35 PM 36.1 °F 30.6 °F 27.0 °F 69% 29.38 in 10.0 mi WSW 6.9 mph - N/A   Clear
5:54 PM 34.9 °F 29.0 °F 27.1 °F 73% 29.38 in 10.0 mi WSW 6.9 mph - N/A   Clear
6:14 PM 33.8 °F 28.6 °F 25.3 °F 71% 29.38 in 10.0 mi SW 5.8 mph - N/A   Clear
6:35 PM 35.2 °F 29.5 °F 27.0 °F 72% 29.38 in 10.0 mi SW 6.9 mph - N/A   Clear
6:54 PM 33.8 °F 28.6 °F 29.1 °F 83% 29.38 in 10.0 mi SW 5.8 mph - N/A   Clear
7:15 PM 33.8 °F 27.7 °F 28.4 °F 81% 29.38 in 10.0 mi SW 6.9 mph - N/A   Clear
7:34 PM 33.8 °F 28.6 °F 28.8 °F 82% 29.38 in 10.0 mi SW 5.8 mph - N/A   Clear
7:54 PM 33.8 °F 29.6 °F 29.7 °F 85% 29.38 in 10.0 mi WSW 4.6 mph - N/A   Scattered Clouds
8:15 PM 34.9 °F 30.8 °F 31.6 °F 88% 29.38 in 10.0 mi WSW 4.6 mph - N/A   Overcast
8:34 PM 34.9 °F - 32.0 °F 89% 29.38 in 10.0 mi Calm Calm - N/A   Overcast
8:54 PM 34.9 °F - 32.0 °F 89% 29.38 in 10.0 mi Calm Calm - N/A   Overcast
9:15 PM 33.8 °F - 30.0 °F 86% 29.38 in 10.0 mi Calm Calm - N/A   Overcast
9:34 PM 32.9 °F 29.8 °F 29.8 °F 88% 29.39 in 10.0 mi NW 3.5 mph - N/A   Mostly Cloudy
9:55 PM 33.8 °F 30.8 °F 28.4 °F 81% 29.39 in 10.0 mi NNW 3.5 mph - N/A   Overcast
10:15 PM 33.8 °F 28.6 °F 26.1 °F 73% 29.40 in 10.0 mi North 5.8 mph - N/A   Overcast
10:34 PM 33.8 °F 30.8 °F 27.0 °F 76% 29.40 in 10.0 mi NNW 3.5 mph - N/A   Overcast
10:55 PM 33.8 °F 29.6 °F 25.9 °F 73% 29.40 in 10.0 mi NNW 4.6 mph - N/A   Overcast
11:14 PM 33.8 °F 30.8 °F 25.3 °F 71% 29.40 in 10.0 mi NW 3.5 mph - N/A   Overcast
11:35 PM 33.1 °F 27.7 °F 25.7 °F 74% 29.41 in 10.0 mi NNW 5.8 mph - N/A   Scattered Clouds
11:55 PM 31.5 °F 26.8 °F 24.4 °F 75% 29.41 in 10.0 mi NNW 4.6 mph - N/A   Mostly Cloudy